sat.trackr.live / text

‹ back to catalog

LEMUR-2-ALYX

NORAD 69928 · 2026-156BM

PAYLOAD ACTIVE UNKNOWN

§ Identity

Operator
Country
US
Launch date
2026-07-07
Launch site
AFWTR
Launch vehicle
Mass (kg)
RCS (m²)

External: N2YO · Heavens-Above · Gunter

§ Orbital elements

Epoch: 2026-09-19T23:09:57.585312Z

Period
96.47 min
Inclination
97.7488°
Eccentricity
0.0007008
Mean motion
14.92627852 rev/d
Perigee alt
584.9 km
Apogee alt
594.6 km
Semi-major
6,967.9 km
B*
1.7952e-4
RAAN
162.2773°
Arg perigee
276.8855°
Mean anomaly
83.1567°
Rev number
1,113

§ Raw data

LEMUR-2-ALYX1 69928U 26156BM  26262.96524983  .00001793  00000+0  17952-3 0  99942 69928  97.7488 162.2773 0007008 276.8855  83.1567 14.92627852 11135

JSON: /api/v1/satellites/69928 · /tle

For live sub-satellite position, see the globe view (requires WebGL).

§ Visibility from observer

Set your observer location to see the next 7 days of passes ≥ 10°. The values pass through the URL so the page stays shareable.

No JS? Fill the form by hand. The geolocation button needs JavaScript.